Weather History for KMCB - July, 2013

Change the Weather History Date:

Wednesday, July 10, 2013

  Actual Average Record
Temperature  
Mean Temperature 82 °F -  
Max Temperature 91 °F 91 °F 101 °F (1980)
Min Temperature 75 °F 69 °F 62 °F (1983)
Cooling Degree Days 18    
Growing Degree Days 32 (Base 50)    
Moisture  
Dew Point 74 °F    
Average Humidity 77    
Maximum Humidity 96    
Minimum Humidity 57    
Precipitation  
Precipitation 0.00 in - - ()
Sea Level Pressure  
Sea Level Pressure 30.05 in    
Wind  
Wind Speed 2 mph (WSW)    
Max Wind Speed 9 mph    
Max Gust Speed -    
Visibility 9 miles    
Events Thunderstorm    
Averages and records for this station are not official NWS values.
T = Trace of Precipitation, MM = Missing Value Source: NWS Daily Summary

Daily Weather History Graph

Daily Weather History Graph

Search for Another Location

Airport or City:

Trip Planner

Search our weather history database for the weather conditions in past years. The results will help you decide how hot, cold, wet, or windy it might be!

Date:

Astronomy

Jul. 10, 2013 Rise Set
Actual Time 6:05 AM CDT 8:08 PM CDT
Civil Twilight 5:38 AM CDT 8:36 PM CDT
Nautical Twilight 5:04 AM CDT 9:09 PM CDT
Astronomical Twilight 4:29 AM CDT 9:45 PM CDT
Moon 8:15 AM CDT (7/10) 9:32 PM CDT (7/10)
Length of Visible Light 14h 57m
Length of Day
14h 02m
Waxing Crescent, 5% of the Moon is Illuminated
Jul 10
Waxing Crescent
Jul 15
First Quarter
Jul 22
Full
Jul 29
Last Quarter
Aug 6
New

Hourly Weather History & Observations

Time (CDT) Temp. Heat Index Dew Point Humidity Pressure Visibility Wind Dir Wind Speed Gust Speed Precip Events Conditions
12:53 AM 75.9 °F - 73.0 °F 91% 30.09 in 10.0 mi South 3.5 mph - N/A   Clear
1:53 AM 75.9 °F - 73.9 °F 94% 30.08 in 10.0 mi Calm Calm - N/A   Clear
2:53 AM 75.0 °F - 73.9 °F 96% 30.09 in 8.0 mi Calm Calm - N/A   Clear
3:53 AM 75.0 °F - 73.0 °F 94% 30.09 in 6.0 mi Calm Calm - N/A   Clear
4:53 AM 75.0 °F - 73.9 °F 96% 30.10 in 8.0 mi Calm Calm - N/A   Mostly Cloudy
5:53 AM 75.0 °F - 73.0 °F 94% 30.09 in 8.0 mi Calm Calm - N/A   Clear
6:53 AM 75.0 °F - 73.0 °F 94% 30.09 in 6.0 mi Calm Calm - N/A   Clear
7:40 AM 75.2 °F - 73.4 °F 94% 30.12 in 9.0 mi Calm Calm - N/A   Scattered Clouds
7:53 AM 77.0 °F - 75.0 °F 94% 30.10 in 9.0 mi West 3.5 mph - N/A   Scattered Clouds
8:53 AM 81.0 °F 86.2 °F 73.9 °F 79% 30.11 in 10.0 mi West 8.1 mph - N/A   Clear
9:53 AM 84.0 °F 90.2 °F 73.0 °F 69% 30.11 in 10.0 mi West 5.8 mph - N/A   Clear
10:53 AM 86.0 °F 93.0 °F 73.0 °F 65% 30.11 in 10.0 mi WNW 6.9 mph - N/A   Clear
11:53 AM 84.9 °F 90.7 °F 72.0 °F 65% 30.10 in 10.0 mi West 3.5 mph - N/A   Mostly Cloudy
12:53 PM 88.0 °F 93.8 °F 71.1 °F 57% 30.08 in 10.0 mi Variable 4.6 mph - N/A   Partly Cloudy
1:53 PM 89.1 °F 97.0 °F 73.0 °F 59% 30.05 in 10.0 mi West 9.2 mph - N/A   Mostly Cloudy
2:53 PM 90.0 °F 97.9 °F 73.0 °F 57% 30.02 in 10.0 mi West 5.8 mph - N/A   Scattered Clouds
3:53 PM 89.1 °F 96.0 °F 72.0 °F 57% 30.00 in 10.0 mi SW 4.6 mph - N/A   Mostly Cloudy
4:53 PM 90.0 °F 97.9 °F 73.0 °F 57% 29.99 in 10.0 mi WSW 3.5 mph - N/A   Clear
5:53 PM 90.0 °F 97.9 °F 73.0 °F 57% 29.97 in 10.0 mi West 4.6 mph - N/A   Partly Cloudy
6:53 PM 89.1 °F 98.0 °F 73.9 °F 61% 29.98 in 10.0 mi SSW 4.6 mph - N/A   Clear
7:53 PM 87.1 °F 95.4 °F 73.9 °F 65% 29.98 in 10.0 mi Calm Calm - N/A   Clear
8:28 PM 84.2 °F 92.3 °F 75.2 °F 74% 30.00 in 10.0 mi Calm Calm - N/A Thunderstorm Clear
8:43 PM 84.2 °F 92.3 °F 75.2 °F 74% 30.00 in 10.0 mi Calm Calm - N/A   Clear
8:53 PM 82.0 °F 89.4 °F 75.9 °F 82% 29.98 in 10.0 mi Calm Calm - N/A   Clear
9:53 PM 81.0 °F 87.3 °F 75.9 °F 85% 29.98 in 10.0 mi Calm Calm - N/A   Clear
10:53 PM 80.1 °F 85.1 °F 75.0 °F 85% 29.98 in 10.0 mi Calm Calm - N/A   Clear
11:53 PM 78.1 °F - 75.0 °F 90% 29.98 in 9.0 mi Calm Calm - N/A   Clear